#timestamp,LO_Frequency,Hit,StdDev 
1513292415.1,286047020.7,N
1513292435.9,286047020.9,N
1513292455.7,286047020.5,N
1513292475.5,286047023.2,N
1513292495.4,286047022.2,N
1513292515.2,286047024.6,N
1513292535.0,286047023.9,N
1513292535.9,286047023.9,N
1513292555.8,286047022.3,Y
1513292575.6,286047001.4,P
1513292595.4,286046995.0,N
1513292615.3,286046990.2,N
1513292635.1,286046996.1,N
1513292655.8,286046992.3,N
1513292675.7,286046989.3,N
1513292695.5,286046986.4,N
1513292715.3,286046978.9,N
1513292735.2,286046982.0,N
1513292755.9,286046980.0,N
1513292775.7,286046981.3,N
1513292795.5,286046981.4,N
1513292815.4,286046981.9,N
1513292835.2,286046977.5,N
1513292855.0,286046977.9,N
1513292855.9,286046977.9,N
1513292875.8,286046978.0,N
1513292895.6,286046979.5,N
1513292915.4,286046979.1,N
1513292935.3,286046982.6,N
1513292955.1,286046984.5,N
1513292956.0,286046984.5,N
1513292975.8,286046985.2,N
1513292995.7,286046984.5,N
1513293015.5,286046980.8,N
1513293035.3,286046981.5,N
1513293055.1,286046979.5,N
1513293075.9,286046978.2,N
1513293095.7,286046977.9,N
1513293115.5,286046978.6,N
1513293135.4,286046979.0,Y
1513293155.2,286046995.3,P
1513293175.0,286046995.1,N
1513293175.9,286046995.1,N
1513293195.8,286046999.5,N
1513293215.6,286047002.5,N
1513293235.4,286047002.8,N
1513293255.3,286047000.7,N
1513293275.1,286047000.4,N
1513293276.0,286047000.4,N
1513293295.8,286046998.8,N
1513293315.7,286047000.9,N
1513293335.5,286047000.4,N
1513293355.3,286046999.8,N
1513293375.2,286046999.1,N
1513293395.9,286046997.1,N
1513293415.7,286046996.6,N
1513293435.5,286046998.9,N
1513293455.4,286046997.3,N
1513293475.2,286046999.2,N
1513293495.0,286046998.3,N
1513293495.9,286046998.3,N
1513293515.8,286047001.1,N
1513293535.6,286046996.6,N
1513293555.4,286047000.5,N
1513293575.3,286047004.4,N
1513293595.1,286047009.0,N
1513293596.0,286047009.0,N
1513293615.8,286047007.9,N
1513293635.7,286047009.1,N
1513293655.5,286047010.4,N
1513293675.3,286047007.5,N
1513293695.2,286047003.2,N
1513293715.9,286047002.2,N
1513293735.7,286046999.8,N
1513293755.5,286047000.2,N
1513293775.4,286047002.2,N
1513293795.2,286046999.7,N
1513293815.0,286047000.5,N
1513293815.9,286047000.5,N
1513293835.8,286046999.6,N
1513293855.6,286046995.4,N
1513293875.4,286046997.7,N
1513293895.3,286046995.1,N
1513293915.1,286046994.7,N
1513293935.8,286046993.7,N
1513293955.7,286046997.6,N
1513293975.5,286046995.9,N
1513293995.3,286046998.0,N
1513294015.2,286046997.6,N
1513294035.9,286046996.2,N
1513294055.7,286046994.3,N
1513294075.6,286046993.5,N
1513294095.4,286046990.9,N
1513294115.2,286046989.1,N
1513294135.0,286046990.2,N
1513294136.0,286046990.2,N
1513294155.8,286046992.5,N
1513294175.6,286046989.6,N
1513294195.4,286046985.8,N
1513294215.3,286046985.2,N
1513294235.1,286046980.3,Y
1513294255.8,286046983.1,P
1513294275.7,286046983.9,N
1513294295.5,286046989.3,N
1513294315.3,286046991.1,N
1513294335.2,286046990.8,N
1513294355.9,286046990.8,N
1513294375.7,286046992.6,N
1513294395.6,286046990.1,N
1513294415.4,286046987.0,Y
1513294435.2,286046999.9,P
1513294455.1,286046997.4,N
1513294456.0,286046997.4,N
1513294475.8,286046997.1,N
1513294495.6,286046997.2,N
1513294515.5,286047000.8,N
1513294535.3,286047000.8,N
1513294555.1,286047000.8,N
1513294575.9,286047000.1,N
1513294595.7,286047001.1,N
1513294615.5,286046999.1,N
1513294635.3,286047000.1,N
1513294655.2,286047004.4,N
1513294675.0,286047005.7,N
1513294675.9,286047005.7,N
1513294695.7,286047004.2,N
1513294715.6,286047000.3,N
1513294735.4,286047001.3,N
1513294755.2,286047004.3,N
1513294775.1,286047002.9,N
1513294776.0,286047002.9,N
1513294795.8,286047003.3,N
1513294815.6,286047003.7,N
1513294835.5,286047005.9,N
1513294855.3,286047003.7,N
1513294875.1,286046999.7,N
1513294895.9,286047001.7,N
1513294915.7,286047002.1,N
1513294935.5,286047003.3,N
1513294955.3,286047003.0,N
1513294975.2,286047005.8,N
1513294995.9,286047001.4,N
1513295015.7,286047003.0,N
1513295035.6,286047004.7,N
1513295055.4,286047005.8,N
1513295075.2,286047006.0,N
1513295095.1,286047001.4,N
1513295096.0,286047001.4,N
1513295115.8,286046997.1,N
1513295135.6,286046996.7,N
1513295155.5,286047003.9,N
1513295175.3,286047005.9,N
1513295195.1,286047001.4,N
1513295215.9,286047001.8,N
1513295235.7,286046998.5,N
1513295255.5,286046998.5,N
1513295275.3,286047004.0,N
1513295295.2,286047002.5,N
1513295315.0,286047000.4,N
1513295315.9,286047000.4,N
1513295335.7,286047000.3,N
1513295355.6,286046998.8,N
1513295375.4,286047000.7,N
1513295395.2,286047002.4,N
1513295415.1,286047002.5,N
1513295416.0,286047002.5,N
1513295435.8,286047002.3,N
1513295455.6,286047003.3,N
1513295475.5,286047003.3,N
1513295495.3,286047004.1,N
1513295515.1,286047003.7,N
1513295535.9,286047003.0,N
1513295555.7,286047005.5,N
1513295575.5,286047007.1,N
1513295595.4,286047005.5,N
1513295615.2,286047007.3,N
1513295635.0,286047009.5,Y
1513295635.9,286047009.5,P
1513295655.8,286047007.3,N
1513295675.6,286047004.2,N
1513295695.4,286047006.1,N
1513295715.3,286047006.1,N
1513295735.1,286047006.5,N
1513295736.0,286047006.5,Y
1513295755.8,286047001.7,P
1513295775.7,286047003.7,N
1513295795.5,286047004.1,N
1513295815.3,286046999.9,N
1513295835.2,286046997.8,N
1513295855.9,286046997.4,N
1513295875.7,286047000.7,N
1513295895.5,286046998.2,N
1513295915.4,286047001.1,N
1513295935.2,286047000.2,N
1513295955.0,286047001.8,N
1513295955.9,286047001.8,N
1513295975.8,286047002.0,N
1513295995.6,286047002.3,N
